Flag for U.S.A. Weather past 2 weeks in Victorville, California, U.S.A.

Now
55 °F

Overcast.


Feels Like: 52 °F
Forecast: 45 / 56 °F
Wind: 14 mph from Southeast

Location: George Air Force Base / Victorvi

Current Time: Jan 29, 2015 at 9:49:46 PM

Latest Report: Jan 29, 2015 at 9:15 PM


Visibility: 10 mi

Pressure: 30.09 "Hg

Humidity: 51%

Dew point: 37 °F

Location of VictorvilleLocation

Historic Weather in Victorville — Graph

°F

Victorville temperature yesterday

Maximum temperature yesterday: 59 °F (at 2:35 PM)
Minimum temperature yesterday: 39 °F (at 4:15 AM)
Average temperature yesterday: 49 °F

Past Weeks' High & Low Weather Summary

 TemperatureHumidityPressure
High70 °F (Jan 25, 1:15 PM)100% (Jan 27, 1:15 AM)30.37 "Hg (Jan 27, 1:15 AM)
Low30 °F (Jan 23, 4:15 AM)12% (Jan 23, 1:15 PM)29.95 "Hg (Jan 20, 5:15 PM)
Average48 °F57%30.21 "Hg
* Reported Jan 14 8:15 PM — Jan 29 8:15 PM, Victorville, Weather by CustomWeather, © 2014

Note: Actual official high and low records may vary slightly from our data, if they occured in-between our weather recording intervals... More about our weather records

Advertising

Victorville weather history for previous 24 hours

 ConditionsComfort  
Time TempWeatherWind HumidityBarometerVisibility
8:15 PM
Jan 29
55 °FOvercast.5 mph59%30.08 "Hg10 mi
7:15 PM57 °FOvercast.5 mph51%30.09 "Hg10 mi
6:55 PM57 °FMostly cloudy.5 mph51%30.09 "Hg10 mi
6:35 PM57 °FPassing clouds.No wind51%30.08 "Hg10 mi
6:15 PM57 °FPassing clouds.5 mph51%30.08 "Hg10 mi
5:55 PM57 °FClear.5 mph51%30.08 "Hg10 mi
5:35 PM57 °FClear.5 mph51%30.08 "Hg10 mi
5:15 PM59 °FSunny.6 mph48%30.07 "Hg10 mi
4:55 PM59 °FSunny.6 mph45%30.08 "Hg10 mi
4:35 PM61 °FSunny.5 mph42%30.08 "Hg10 mi
4:15 PM61 °FSunny.5 mph39%30.08 "Hg10 mi
3:55 PM61 °FScattered clouds.7 mph42%30.08 "Hg10 mi
3:35 PM61 °FScattered clouds.8 mph39%30.08 "Hg10 mi
3:15 PM61 °FScattered clouds.6 mph42%30.08 "Hg10 mi
2:55 PM63 °FScattered clouds.8 mph39%30.08 "Hg10 mi
2:35 PM63 °FScattered clouds.8 mph39%30.08 "Hg10 mi
2:15 PM63 °FScattered clouds.8 mph39%30.08 "Hg10 mi
1:55 PM63 °FScattered clouds.8 mph39%30.09 "Hg10 mi
1:15 PM63 °FScattered clouds.8 mph39%30.11 "Hg10 mi
12:55 PM63 °FScattered clouds.5 mph42%30.12 "Hg10 mi
12:35 PM61 °FRefreshingly cool.6 mph45%30.13 "Hg10 mi
12:15 PM61 °FScattered clouds.6 mph48%30.14 "Hg10 mi
11:55 AM59 °FRefreshingly cool.3 mph51%30.16 "Hg10 mi
11:35 AM57 °FRefreshingly cool.3 mph59%30.17 "Hg10 mi
11:15 AM57 °FScattered clouds.No wind59%30.18 "Hg10 mi
10:55 AM55 °FCool.No wind63%30.18 "Hg10 mi
10:35 AM55 °FCool.No wind67%30.19 "Hg10 mi
10:15 AM54 °FCool.No wind72%30.19 "Hg10 mi
9:55 AM54 °FCool.No wind72%30.19 "Hg10 mi
9:35 AM52 °FScattered clouds.No wind77%30.18 "Hg10 mi
9:15 AM52 °FScattered clouds.No wind77%30.19 "Hg10 mi
8:55 AM50 °FScattered clouds.3 mph82%30.19 "Hg10 mi
8:35 AM48 °FPartly sunny.No wind87%30.18 "Hg10 mi
8:15 AM48 °FPartly sunny.No wind87%30.18 "Hg10 mi
7:55 AM48 °FPartly sunny.No wind87%30.18 "Hg10 mi
7:35 AM48 °FScattered clouds.No wind82%30.18 "Hg10 mi
7:15 AM46 °FSunny.No wind87%30.18 "Hg10 mi
6:55 AM46 °FScattered clouds.No wind87%30.18 "Hg10 mi
6:35 AM46 °FPassing clouds.No wind87%30.17 "Hg10 mi
6:15 AM46 °FPassing clouds.No wind87%30.17 "Hg10 mi
5:55 AM46 °FPassing clouds.No wind87%30.16 "Hg10 mi
5:35 AM46 °FPassing clouds.No wind87%30.16 "Hg10 mi
5:15 AM46 °FPassing clouds.No wind87%30.16 "Hg10 mi
4:55 AM46 °FClear.No wind87%30.15 "Hg10 mi
4:35 AM46 °FClear.No wind87%30.16 "Hg10 mi
4:15 AM46 °FClear.3 mph87%30.16 "Hg10 mi
3:55 AM46 °FClear.3 mph87%30.16 "Hg10 mi
3:35 AM46 °FClear.3 mph87%30.16 "Hg10 mi
3:15 AM46 °FClear.No wind87%30.17 "Hg10 mi
2:55 AM48 °FClear.No wind82%30.17 "Hg10 mi
2:35 AM48 °FClear.No wind82%30.18 "Hg10 mi
2:15 AM48 °FClear.No wind82%30.18 "Hg10 mi
1:55 AM46 °FClear.No wind87%30.18 "Hg10 mi
1:35 AM46 °FClear.No wind87%30.18 "Hg10 mi
1:15 AM46 °FClear.No wind93%30.18 "Hg10 mi
12:55 AM46 °FClear.3 mph93%30.19 "Hg10 mi
12:35 AM48 °FClear.3 mph87%30.19 "Hg10 mi
12:15 AM46 °FClear.No wind93%30.19 "Hg10 mi
11:55 PM
Jan 28
48 °FClear.No wind87%30.19 "Hg10 mi
11:35 PM48 °FClear.No wind87%30.20 "Hg10 mi
11:15 PM48 °FClear.No wind87%30.20 "Hg10 mi
10:55 PM48 °FClear.5 mph87%30.20 "Hg10 mi
10:35 PM48 °FClear.5 mph87%30.20 "Hg10 mi
10:15 PM50 °FClear.5 mph82%30.21 "Hg10 mi
9:55 PM52 °FClear.3 mph77%30.20 "Hg10 mi
9:35 PM50 °FClear.No wind88%30.21 "Hg10 mi
9:15 PM52 °FClear.No wind82%30.20 "Hg10 mi
Weather by CustomWeather, © 2014

See weather overviewHow to use our weather pages